Regional Weather Roundup
Issued by NWS Goodland, KS

Home | Current Version | Previous Version | Graphics & Text | Print | Product List | Glossary On
Versions: 1 2 3 4 5 6 7 8 9 10 11 12 13 14 15 16 17 18 19 20 21 22 23 24 25 26 27 28 29 30 31 32 33 34 35 36 37 38 39 40 41 42 43 44 45 46 47 48 49 50
000
ASUS43 KGLD 041608
RWRGLD

GOODLAND FORECAST AREA HOURLY WEATHER ROUNDUP
NATIONAL WEATHER SERVICE GOODLAND KS
900 AM MST SUN DEC 04 2016

...OFFICIAL OBSERVATIONS...

CITY           SKY/WX    TMP DP  RH WIND       PRES   REMARKS
GOODLAND KS    SUNNY     35  16  45 W16       30.06R
HILL CITY KS   SUNNY     36  25  64 NW12      30.06S
IMPERIAL NEB   SUNNY     35  17  47 NW13      30.03S
MCCOOK NEB     SUNNY     31  20  63 W14       30.05R
AKRON CO       SUNNY     32  12  43 SW8       30.02F
BURLINGTON CO  SUNNY     34  17  50 W12       30.08R
LIMON CO       SUNNY     29  19  66 CALM      30.04F
$$

...UNOFFICIAL OBSERVATIONS...

CITY           SKY/WX    TMP DP  RH WIND       PRES   REMARKS
COLBY KS       SUNNY     37  23  56 W10G17    30.08R
LENORA KS        N/A     34  32  92 MISG        N/A
NORTON KS      SUNNY     36  21  55 W13       30.04R
SHARON SPRINGS   N/A     33  21  60 W7          N/A
TRENTON NEB      N/A     36  32  85 NW8         N/A
KIT CARSON CO    N/A     24  15  69 CALM        N/A
YUMA CO        FAIR      32  14  47 W10       30.04R
$$




USA.gov is the U.S. government's official web portal to all federal, state and local government web resources and services.